Weather History for Abingdon, VA

Change the Weather History Date:

Friday, January 13, 2012

  Actual Average (KTRI) Record (KTRI)
Temperature  
Mean Temperature 26 °F 35 °F  
Max Temperature 28 °F 45 °F 73 °F (2013)
Min Temperature 23 °F 25 °F 5 °F (1954)
Degree Days  
Heating Degree Days 40 30  
Month to date heating degree days 390  
Since 1 July heating degree days 2119  
Cooling Degree Days 0 0  
Month to date cooling degree days 0  
Year to date cooling degree days 0  
Moisture  
Dew Point 15 °F    
Average Humidity 66    
Maximum Humidity 80    
Minimum Humidity 54    
Precipitation  
Precipitation 0.00 in 0.11 in 0.71 in (1951)
Month to date precipitation 1.37  
Year to date precipitation 1.37  
Snow  
Snow 0.00 in 0.10 in - ()
Month to date snowfall 1.8  
Since 1 July snowfall 4.5  
Snow Depth -    
Sea Level Pressure  
Sea Level Pressure 29.87 in    
Wind  
Wind Speed 15 mph (WNW)    
Max Wind Speed 24 mph    
Max Gust Speed 37 mph    
Visibility 8 miles    
Events Snow    
T = Trace of Precipitation, MM = Missing Value Source: NWS Daily Summary

Daily Weather History Graph

Daily Weather History Graph

Search for Another Location

Airport:

Trip Planner

Search our weather history database for the weather conditions in past years. The results will help you decide how hot, cold, wet, or windy it might be!

Date:

Astronomy

Jan. 13, 2012 Rise Set
Actual Time 7:40 AM EST 5:33 PM EST
Civil Twilight 7:11 AM EST 6:01 PM EST
Nautical Twilight 6:40 AM EST 6:33 PM EST
Astronomical Twilight 6:08 AM EST 7:04 PM EST
Moon 10:35 PM EST (1/13) 10:02 AM EST (1/13)
Length of Visible Light 10h 49m
Length of Day
9h 53m
Waning Gibbous, 79% of the Moon is Illuminated
Jan 13
Waning Gibbous
Jan 16
Last Quarter
Jan 23
New
Jan 30
First Quarter
Feb 7
Full

Hourly Weather History & Observations

Time (EST) Temp. Windchill Dew Point Humidity Pressure Visibility Wind Dir Wind Speed Gust Speed Precip Events Conditions
12:15 AM 28.4 °F 16.2 °F 15.8 °F 59% 29.69 in 10.0 mi NW 17.3 mph 29.9 mph N/A   Overcast
12:35 AM 26.6 °F 14.7 °F 15.8 °F 64% 29.69 in 10.0 mi NW 15.0 mph 21.9 mph N/A   Overcast
12:55 AM 26.6 °F 14.7 °F 14.0 °F 59% 29.69 in 10.0 mi WNW 15.0 mph 26.5 mph N/A   Overcast
1:15 AM 26.6 °F 14.7 °F 14.0 °F 59% 29.70 in 10.0 mi NW 15.0 mph 24.2 mph N/A   Overcast
1:35 AM 26.6 °F 13.8 °F 14.0 °F 59% 29.70 in 10.0 mi West 17.3 mph 25.3 mph N/A Snow Light Snow
1:55 AM 26.6 °F 15.7 °F 14.0 °F 59% 29.70 in 10.0 mi NW 12.7 mph 21.9 mph N/A   Overcast
2:15 AM 26.6 °F 17.5 °F 15.8 °F 64% 29.70 in 10.0 mi WNW 9.2 mph 16.1 mph N/A   Overcast
2:35 AM 26.6 °F 14.7 °F 17.6 °F 69% 29.70 in 10.0 mi WNW 15.0 mph 23.0 mph N/A Snow Light Snow
2:55 AM 26.6 °F 14.7 °F 17.6 °F 69% 29.71 in 10.0 mi West 15.0 mph 21.9 mph N/A   Overcast
3:15 AM 26.6 °F 13.8 °F 17.6 °F 69% 29.71 in 10.0 mi West 17.3 mph 26.5 mph N/A   Overcast
3:55 AM 26.6 °F 15.7 °F 15.8 °F 64% 29.72 in 5.0 mi WNW 12.7 mph 26.5 mph N/A Snow Light Snow
4:15 AM 24.8 °F 9.6 °F 14.0 °F 64% 29.73 in 10.0 mi West 23.0 mph 36.8 mph N/A Snow Light Snow
4:55 AM 24.8 °F 11.5 °F 12.2 °F 59% 29.73 in 10.0 mi WNW 17.3 mph 34.5 mph N/A   Overcast
5:15 AM 24.8 °F 11.9 °F 14.0 °F 64% 29.74 in 10.0 mi West 16.1 mph 25.3 mph N/A Snow Light Snow
5:35 AM 23.0 °F 11.7 °F 14.0 °F 68% 29.75 in 10.0 mi WNW 11.5 mph 25.3 mph N/A Snow Light Snow
5:55 AM 23.0 °F 8.7 °F 14.0 °F 68% 29.75 in 10.0 mi WNW 18.4 mph 26.5 mph N/A Snow Light Snow
6:15 AM 24.8 °F 10.7 °F 14.0 °F 64% 29.76 in 10.0 mi WNW 19.6 mph 27.6 mph N/A   Overcast
6:35 AM 24.8 °F 9.3 °F 14.0 °F 64% 29.77 in 10.0 mi WNW 24.2 mph 29.9 mph N/A   Overcast
6:55 AM 24.8 °F 13.4 °F 12.2 °F 59% 29.79 in 10.0 mi WNW 12.7 mph 33.4 mph N/A   Overcast
7:15 AM 24.8 °F 14.0 °F 12.2 °F 59% 29.80 in 10.0 mi West 11.5 mph 21.9 mph N/A   Overcast
7:35 AM 23.0 °F 9.2 °F 12.2 °F 63% 29.80 in 10.0 mi WNW 17.3 mph 27.6 mph N/A Snow Light Snow
7:55 AM 23.0 °F 8.3 °F 14.0 °F 68% 29.81 in 10.0 mi West 19.6 mph 25.3 mph N/A   Overcast
8:15 AM 23.0 °F 11.1 °F 14.0 °F 68% 29.83 in 10.0 mi West 12.7 mph 21.9 mph N/A   Overcast
8:35 AM 23.0 °F 10.1 °F 14.0 °F 68% 29.83 in 7.0 mi West 15.0 mph 21.9 mph N/A Snow Light Snow
8:55 AM 23.0 °F 11.7 °F 14.0 °F 68% 29.85 in 10.0 mi West 11.5 mph 23.0 mph N/A Snow Light Snow
9:15 AM 23.0 °F 8.3 °F 14.0 °F 68% 29.87 in 5.0 mi WNW 19.6 mph 26.5 mph N/A Snow Light Snow
9:35 AM 24.8 °F 13.4 °F 12.2 °F 59% 29.88 in 10.0 mi West 12.7 mph 27.6 mph N/A   Overcast
9:55 AM 24.8 °F 14.6 °F 12.2 °F 59% 29.89 in 10.0 mi WNW 10.4 mph 23.0 mph N/A Snow Light Snow
10:15 AM 24.8 °F 11.9 °F 12.2 °F 59% 29.89 in 10.0 mi WNW 16.1 mph - N/A Snow Light Snow
10:35 AM 24.8 °F 11.9 °F 12.2 °F 59% 29.91 in 10.0 mi West 16.1 mph 27.6 mph N/A   Overcast
10:55 AM 24.8 °F 12.9 °F 12.2 °F 59% 29.92 in 10.0 mi WNW 13.8 mph 21.9 mph N/A   Overcast
11:15 AM 23.0 °F 8.7 °F 12.2 °F 63% 29.91 in 10.0 mi West 18.4 mph 27.6 mph N/A   Overcast
11:35 AM 24.8 °F 11.1 °F 10.4 °F 54% 29.92 in 10.0 mi WNW 18.4 mph 24.2 mph N/A   Overcast
11:55 AM 24.8 °F 10.7 °F 12.2 °F 59% 29.92 in 10.0 mi West 19.6 mph 26.5 mph N/A   Overcast
12:15 PM 23.0 °F 9.2 °F 12.2 °F 63% 29.92 in 7.0 mi West 17.3 mph 23.0 mph N/A Snow Light Snow
12:35 PM 23.0 °F 10.1 °F 12.2 °F 63% 29.93 in 3.0 mi WNW 15.0 mph 25.3 mph N/A Snow Light Snow
12:55 PM 23.0 °F 8.3 °F 12.2 °F 63% 29.93 in 5.0 mi West 19.6 mph 24.2 mph N/A Snow Light Snow
1:15 PM 23.0 °F 10.6 °F 12.2 °F 63% 29.93 in 7.0 mi WNW 13.8 mph 21.9 mph N/A Snow Light Snow
1:35 PM 23.0 °F 11.7 °F 15.8 °F 74% 29.93 in 2.0 mi West 11.5 mph 17.3 mph N/A Snow Light Snow
1:55 PM 23.0 °F 13.1 °F 14.0 °F 68% 29.93 in 2.0 mi West 9.2 mph 17.3 mph N/A Snow Light Snow
2:15 PM 23.0 °F 11.1 °F 14.0 °F 68% 29.94 in 3.0 mi West 12.7 mph 20.7 mph N/A Snow Light Snow
2:35 PM 23.0 °F 13.9 °F 15.8 °F 74% 29.95 in 1.5 mi West 8.1 mph 18.4 mph N/A Snow Light Snow
2:55 PM 23.0 °F 11.7 °F 15.8 °F 74% 29.96 in 1.8 mi West 11.5 mph 16.1 mph N/A Snow Light Snow
3:15 PM 23.0 °F 11.1 °F 12.2 °F 63% 29.96 in 10.0 mi WNW 12.7 mph 18.4 mph N/A   Overcast
3:35 PM 23.0 °F 12.4 °F 12.2 °F 63% 29.97 in 10.0 mi WNW 10.4 mph 17.3 mph N/A   Overcast
3:55 PM 23.0 °F 12.4 °F 14.0 °F 68% 29.99 in 7.0 mi West 10.4 mph 18.4 mph N/A Snow Light Snow
4:15 PM 23.0 °F 11.7 °F 15.8 °F 74% 29.99 in 3.0 mi West 11.5 mph - N/A Snow Light Snow
4:35 PM 23.0 °F 13.1 °F 15.8 °F 74% 29.99 in 5.0 mi West 9.2 mph - N/A Snow Light Snow
4:55 PM 23.0 °F 14.7 °F 15.8 °F 74% 29.99 in 10.0 mi West 6.9 mph - N/A Snow Light Snow
5:15 PM 23.0 °F 11.1 °F 17.6 °F 80% 29.99 in 10.0 mi West 12.7 mph - N/A   Overcast
5:35 PM 23.0 °F 17.0 °F 17.6 °F 80% 29.99 in 10.0 mi West 4.6 mph - N/A Snow Light Snow
5:55 PM 23.0 °F 13.1 °F 17.6 °F 80% 30.00 in 7.0 mi West 9.2 mph - N/A Snow Light Snow
6:15 PM 24.8 °F 14.0 °F 15.8 °F 69% 30.00 in 10.0 mi West 11.5 mph 18.4 mph N/A   Overcast
6:35 PM 24.8 °F 15.3 °F 15.8 °F 69% 30.00 in 10.0 mi West 9.2 mph - N/A Snow Light Snow
6:55 PM 24.8 °F 14.6 °F 17.6 °F 74% 30.01 in 7.0 mi West 10.4 mph - N/A Snow Light Snow
7:15 PM 24.8 °F 14.6 °F 17.6 °F 74% 30.01 in 7.0 mi West 10.4 mph - N/A Snow Light Snow
7:35 PM 24.8 °F 16.1 °F 17.6 °F 74% 30.02 in 7.0 mi West 8.1 mph - N/A Snow Light Snow
7:55 PM 24.8 °F 16.9 °F 17.6 °F 74% 30.02 in 7.0 mi West 6.9 mph 16.1 mph N/A Snow Light Snow
8:15 PM 24.8 °F 16.1 °F 17.6 °F 74% 30.03 in 10.0 mi West 8.1 mph - N/A   Overcast
8:35 PM 26.6 °F 17.5 °F 17.6 °F 69% 30.03 in 10.0 mi West 9.2 mph - N/A   Overcast
9:15 PM 26.6 °F 17.5 °F 17.6 °F 69% 30.04 in 10.0 mi West 9.2 mph - N/A   Overcast
9:35 PM 26.6 °F 17.5 °F 15.8 °F 64% 30.04 in 10.0 mi West 9.2 mph - N/A   Overcast
9:55 PM 26.6 °F 17.5 °F 15.8 °F 64% 30.05 in 10.0 mi WNW 9.2 mph 18.4 mph N/A   Overcast
10:15 PM 26.6 °F 17.5 °F 15.8 °F 64% 30.05 in 10.0 mi WNW 9.2 mph 17.3 mph N/A   Overcast
10:35 PM 26.6 °F 18.2 °F 15.8 °F 64% 30.05 in 10.0 mi West 8.1 mph 16.1 mph N/A   Overcast
10:55 PM 26.6 °F 16.2 °F 17.6 °F 69% 30.05 in 10.0 mi West 11.5 mph 17.3 mph N/A Snow Light Snow
11:15 PM 26.6 °F 16.8 °F 17.6 °F 69% 30.06 in 7.0 mi WNW 10.4 mph - N/A Snow Light Snow
11:35 PM 26.6 °F 16.8 °F 17.6 °F 69% 30.06 in 4.0 mi West 10.4 mph - N/A Snow Light Snow
11:55 PM 24.8 °F 16.9 °F 19.4 °F 80% 30.06 in 3.0 mi West 6.9 mph - N/A Snow Light Snow